Created_Date(Asia/Kolkata),AQI,PM2.5,PM10,Temperature,Humidity
2023-07-01 13:00:00,72,40.0,72.0,36.0,62.0
2023-07-01 14:00:00,127,40.0,140.0,37.0,57.5
2023-07-01 15:00:00,166,40.5,198.5,39.5,51.0
2023-07-01 16:00:00,96,29.0,95.5,38.5,51.5
2023-07-01 17:00:00,83,25.5,83.0,37.5,53.0
2023-07-01 18:00:00,42,17.0,42.5,36.0,56.5
2023-07-01 19:00:00,46,21.0,46.0,33.5,64.5
2023-07-01 20:00:00,56,28.0,56.0,32.0,69.5
2023-07-01 21:00:00,40,18.5,40.0,32.0,72.5
2023-07-01 22:00:00,40,20.5,39.5,32.0,73.5
2023-07-01 23:00:00,38,19.5,37.5,32.0,75.0
2023-07-02 00:00:00,34,15.5,34.5,32.0,76.0
2023-07-02 01:00:00,40,20.5,39.5,32.0,77.5
2023-07-02 02:00:00,42,24.5,42.0,31.5,78.5
2023-07-02 03:00:00,40,15.5,39.5,31.0,80.5
2023-07-02 04:00:00,46,25.5,45.5,31.0,82.5
2023-07-02 05:00:00,80,48.0,73.0,31.0,83.0
2023-07-02 06:00:00,97,58.0,86.0,31.0,83.0
2023-07-02 07:00:00,86,51.5,73.5,31.5,81.5
2023-07-02 08:00:00,78,46.5,63.5,32.0,78.5
2023-07-02 09:00:00,78,47.0,72.0,32.0,75.5
2023-07-02 10:00:00,79,47.5,65.5,33.5,70.5
2023-07-02 11:00:00,88,53.0,80.0,34.5,68.0
2023-07-02 12:00:00,89,53.5,78.5,35.0,63.0
2023-07-02 13:00:00,78,47.0,65.0,37.0,57.0
2023-07-02 14:00:00,70,42.0,59.5,38.5,52.0
2023-07-02 15:00:00,71,42.5,62.0,38.0,50.5
2023-07-02 16:00:00,84,50.5,70.0,39.5,47.0
2023-07-02 17:00:00,88,52.5,77.0,41.0,44.5
2023-07-02 18:00:00,84,50.5,71.5,39.0,49.0
2023-07-02 19:00:00,93,56.0,73.5,35.5,58.5
2023-07-02 20:00:00,107,62.0,88.0,34.0,63.0
2023-07-02 21:00:00,110,63.0,91.0,33.0,66.5
2023-07-02 22:00:00,128,68.5,99.5,33.0,68.5
2023-07-02 23:00:00,103,61.0,85.5,33.0,70.0
2023-07-03 00:00:00,92,55.5,82.5,33.0,71.5
2023-07-03 01:00:00,76,45.5,71.5,33.0,73.5
2023-07-03 02:00:00,60,36.0,55.0,32.0,75.5
2023-07-03 03:00:00,60,36.0,55.0,32.0,77.0
2023-07-03 04:00:00,60,36.0,57.0,32.0,78.0
2023-07-03 05:00:00,61,36.5,60.5,32.0,80.0
2023-07-03 06:00:00,63,38.0,58.0,32.0,79.5
2023-07-03 07:00:00,62,37.5,54.0,33.0,77.5
2023-07-03 08:00:00,68,41.0,63.5,33.0,76.0
2023-07-03 09:00:00,96,57.5,93.5,34.0,71.5
2023-07-03 10:00:00,101,52.0,101.5,35.0,66.0
2023-07-03 11:00:00,102,56.0,102.5,35.5,59.0
2023-07-03 12:00:00,104,58.5,106.5,37.0,53.0
2023-07-03 13:00:00,92,52.0,91.5,38.5,46.5
2023-07-03 14:00:00,84,43.0,84.0,40.5,41.5
2023-07-03 15:00:00,72,42.0,72.5,42.0,37.0
2023-07-03 16:00:00,111,58.5,116.0,42.5,38.0
2023-07-03 17:00:00,156,68.5,184.5,43.0,39.5
2023-07-03 18:00:00,155,76.5,137.0,39.0,47.5
2023-07-03 19:00:00,165,79.5,119.5,36.5,55.5
2023-07-03 20:00:00,173,82.0,119.0,35.0,61.0
2023-07-03 21:00:00,175,82.5,123.5,35.0,63.5
2023-07-03 22:00:00,170,81.0,121.0,34.5,65.0
2023-07-03 23:00:00,168,80.5,122.0,34.0,66.5
2023-07-04 00:00:00,182,84.5,138.0,34.0,68.0
2023-07-04 01:00:00,162,78.5,124.0,34.0,69.5
2023-07-04 02:00:00,125,67.5,98.0,34.0,72.0
2023-07-04 03:00:00,123,67.0,95.5,34.0,73.0
2023-07-04 04:00:00,103,61.0,86.0,33.5,74.0
2023-07-04 05:00:00,99,59.5,83.0,33.0,75.5
2023-07-04 06:00:00,107,62.0,90.5,33.5,75.5
2023-07-04 07:00:00,102,60.5,88.0,34.0,73.5
2023-07-04 08:00:00,87,52.0,84.0,34.5,70.5
2023-07-04 09:00:00,132,44.0,148.5,35.0,67.0
2023-07-04 10:00:00,94,34.5,94.0,35.5,63.0
2023-07-04 11:00:00,149,65.0,174.0,36.0,64.0
2023-07-04 12:00:00,124,53.0,136.5,35.5,64.5
2023-07-04 13:00:00,102,47.0,103.0,37.5,59.5
2023-07-04 14:00:00,72,21.5,71.5,31.5,72.0
2023-07-04 15:00:00,118,24.0,126.5,31.5,72.5
2023-07-04 16:00:00,117,35.5,126.0,32.5,69.5
2023-07-04 17:00:00,107,41.5,110.0,34.0,66.5
2023-07-04 18:00:00,70,37.0,69.5,34.0,64.5
2023-07-04 19:00:00,77,42.5,77.0,34.0,67.0
2023-07-04 20:00:00,79,47.5,77.5,33.0,72.0
2023-07-04 21:00:00,82,49.5,79.0,33.0,74.5
2023-07-04 22:00:00,90,54.0,80.5,33.0,76.0
2023-07-04 23:00:00,97,58.0,90.5,33.0,78.0
2023-07-05 00:00:00,102,60.5,94.0,33.0,79.0
2023-07-05 01:00:00,117,65.0,105.5,33.0,80.0
2023-07-05 02:00:00,102,60.5,91.5,33.0,80.0
2023-07-05 03:00:00,95,57.0,85.0,33.0,80.5
2023-07-05 04:00:00,74,44.5,68.0,33.0,80.0
2023-07-05 05:00:00,70,42.0,63.0,32.0,80.0
2023-07-05 06:00:00,87,52.0,75.5,33.0,80.0
2023-07-05 07:00:00,103,61.0,89.5,33.0,78.5
2023-07-05 08:00:00,103,61.0,91.0,34.0,75.0
2023-07-05 09:00:00,102,60.5,99.0,34.5,72.0
2023-07-05 10:00:00,140,62.0,160.0,35.0,68.5
2023-07-05 11:00:00,200,66.5,250.5,35.5,64.5
2023-07-05 12:00:00,169,65.0,203.0,35.5,65.5
2023-07-05 13:00:00,121,61.5,131.5,34.5,69.0
2023-07-05 14:00:00,133,57.5,149.5,35.5,63.5
2023-07-05 15:00:00,258,81.5,307.5,37.0,58.0
2023-07-05 16:00:00,206,68.0,256.5,37.0,57.5
2023-07-05 17:00:00,155,55.0,182.5,35.5,61.5
2023-07-05 18:00:00,70,24.0,69.5,31.0,68.0
2023-07-05 19:00:00,55,31.0,55.0,31.5,74.0
2023-07-05 20:00:00,63,38.0,62.5,32.0,77.5
2023-07-05 21:00:00,65,39.0,59.5,32.0,78.5
2023-07-05 22:00:00,63,38.0,57.5,32.0,79.5
2023-07-05 23:00:00,68,40.5,55.0,32.0,79.0
2023-07-06 00:00:00,72,43.0,58.0,32.0,79.0
2023-07-06 01:00:00,77,46.0,62.0,32.0,80.0
2023-07-06 02:00:00,83,50.0,66.5,32.0,80.0
2023-07-06 03:00:00,91,54.5,73.5,32.0,80.5
2023-07-06 04:00:00,138,71.5,102.5,32.0,81.0
2023-07-06 05:00:00,107,62.0,85.0,32.0,82.0
2023-07-06 06:00:00,73,44.0,66.0,31.5,83.0
2023-07-06 07:00:00,72,43.5,58.5,32.0,84.5
2023-07-06 08:00:00,96,57.5,78.0,32.0,86.0
2023-07-06 09:00:00,64,16.0,64.5,30.5,86.0
2023-07-06 10:00:00,155,34.5,183.0,31.5,82.5
2023-07-06 11:00:00,204,57.0,254.0,32.0,78.0
2023-07-06 12:00:00,125,43.0,137.0,32.5,75.0
2023-07-06 13:00:00,68,21.0,68.0,33.0,70.5
2023-07-06 14:00:00,143,34.5,164.5,34.5,67.0
2023-07-06 15:00:00,129,35.5,143.5,33.5,68.0
2023-07-06 16:00:00,107,58.5,110.0,33.5,69.0
2023-07-06 17:00:00,74,24.0,74.0,35.5,63.0
2023-07-06 18:00:00,100,27.5,100.0,35.0,63.5
2023-07-06 19:00:00,79,27.0,79.0,32.5,70.5
2023-07-06 20:00:00,68,33.0,68.5,32.0,74.5
2023-07-06 21:00:00,52,31.5,46.0,32.0,76.0
2023-07-06 22:00:00,57,34.0,46.0,32.0,77.5
2023-07-06 23:00:00,67,40.0,53.0,32.0,79.0
2023-07-07 00:00:00,71,42.5,56.5,32.0,80.5
2023-07-07 01:00:00,67,40.0,52.0,32.0,81.0
2023-07-07 02:00:00,66,39.5,51.0,31.5,82.5
2023-07-07 03:00:00,70,42.0,54.0,31.5,82.5
2023-07-07 04:00:00,72,43.0,56.5,32.0,81.0
2023-07-07 05:00:00,67,40.0,51.5,31.5,82.5
2023-07-07 06:00:00,70,42.0,55.0,32.0,81.0
2023-07-07 07:00:00,72,43.5,58.5,32.5,77.0
2023-07-07 08:00:00,77,46.0,64.5,33.5,73.5
2023-07-07 09:00:00,76,45.5,76.0,34.0,71.0
2023-07-07 10:00:00,115,57.0,122.0,34.0,69.5
2023-07-07 11:00:00,130,58.0,145.5,34.0,70.0
2023-07-07 12:00:00,133,57.0,149.0,34.5,68.5
2023-07-07 13:00:00,81,48.5,76.0,36.0,62.5
2023-07-07 14:00:00,103,55.5,104.0,36.0,62.0
2023-07-07 15:00:00,206,84.5,256.5,36.5,61.0
2023-07-07 16:00:00,210,79.0,260.0,35.0,66.5
2023-07-07 17:00:00,127,43.0,141.0,34.0,69.5
2023-07-07 18:00:00,88,33.0,88.0,33.5,71.0
2023-07-07 19:00:00,68,25.5,67.5,33.0,72.0
2023-07-07 20:00:00,44,23.0,44.5,32.0,74.0
2023-07-07 21:00:00,36,17.0,36.5,32.0,73.5
2023-07-07 22:00:00,37,16.0,37.0,32.0,74.5
2023-07-07 23:00:00,44,24.0,44.0,32.0,75.5
2023-07-08 00:00:00,49,29.5,49.0,32.0,77.5
2023-07-08 01:00:00,56,33.5,51.5,32.0,79.0
2023-07-08 02:00:00,44,26.0,43.5,32.0,80.5
2023-07-08 03:00:00,26,10.0,26.0,31.0,80.5
2023-07-08 04:00:00,16,4.5,16.5,31.0,82.0
2023-07-08 05:00:00,14,4.5,14.5,31.0,81.5
2023-07-08 06:00:00,23,9.0,23.0,31.0,81.5
2023-07-08 07:00:00,42,25.5,40.0,32.0,81.5
2023-07-08 08:00:00,53,32.0,43.5,32.0,80.5
2023-07-08 09:00:00,59,29.0,59.0,32.0,80.0
2023-07-08 10:00:00,372,93.0,408.0,32.0,83.0
2023-07-08 11:00:00,601,130.0,590.5,32.0,83.5
2023-07-08 12:00:00,219,73.5,269.0,31.5,87.5
2023-07-08 13:00:00,40,15.0,39.5,31.0,87.5
2023-07-08 14:00:00,451,107.5,471.0,31.0,86.0
2023-07-08 15:00:00,362,93.0,400.0,31.0,87.0
2023-07-08 16:00:00,278,85.0,327.5,32.0,87.5
2023-07-08 17:00:00,406,125.5,435.0,31.0,90.0
2023-07-08 18:00:00,574,167.0,569.5,32.0,89.0
2023-07-08 19:00:00,125,60.0,137.0,32.0,88.0
2023-07-08 20:00:00,79,47.5,70.5,31.5,88.5
2023-07-08 21:00:00,73,44.0,64.5,31.5,88.0
2023-07-08 22:00:00,75,45.0,60.0,31.5,88.0
2023-07-08 23:00:00,74,44.5,58.0,31.5,88.0
2023-07-09 00:00:00,72,43.0,56.0,31.0,87.5
2023-07-09 01:00:00,65,39.0,50.0,31.0,87.0
2023-07-09 02:00:00,65,39.0,49.5,31.0,87.0
2023-07-09 03:00:00,65,39.0,50.5,31.0,87.0
2023-07-09 04:00:00,61,36.5,47.0,31.0,87.0
2023-07-09 05:00:00,61,36.5,47.5,31.0,87.0
2023-07-09 06:00:00,74,44.5,60.0,31.0,86.5
2023-07-09 07:00:00,81,48.5,64.5,31.0,86.5
2023-07-09 08:00:00,78,46.5,63.5,31.5,87.0
2023-07-09 09:00:00,69,41.5,59.5,32.0,87.0
2023-07-09 10:00:00,64,38.5,50.5,32.5,85.0
2023-07-09 11:00:00,53,32.0,43.0,33.5,79.5
2023-07-09 12:00:00,63,38.0,52.0,33.0,79.0
2023-07-09 13:00:00,78,46.5,62.5,30.5,90.5
2023-07-09 14:00:00,51,15.5,51.0,30.5,92.0
2023-07-09 15:00:00,62,14.0,61.5,30.5,90.5
2023-07-09 16:00:00,70,15.5,70.5,30.5,91.0
2023-07-09 17:00:00,60,19.5,60.5,30.0,90.5
2023-07-09 18:00:00,44,20.5,44.5,31.0,89.0
2023-07-09 19:00:00,34,19.0,33.5,31.0,88.0
2023-07-09 20:00:00,37,22.0,35.5,31.0,88.0
2023-07-09 21:00:00,30,15.0,30.5,30.5,88.5
2023-07-09 22:00:00,33,18.0,33.0,30.5,89.0
2023-07-09 23:00:00,34,19.5,34.0,30.5,88.0
2023-07-10 00:00:00,34,20.0,34.0,31.0,88.5
2023-07-10 01:00:00,36,21.0,36.0,30.0,89.0
2023-07-10 02:00:00,42,25.0,39.5,30.0,90.0
2023-07-10 03:00:00,43,26.0,41.5,30.0,90.0
2023-07-10 04:00:00,43,26.0,41.0,30.0,89.0
2023-07-10 05:00:00,38,23.0,38.0,30.0,89.5
2023-07-10 06:00:00,46,27.5,43.0,31.0,89.0
2023-07-10 07:00:00,75,45.0,63.5,31.0,88.5
2023-07-10 08:00:00,88,53.0,71.0,32.0,86.0
2023-07-10 09:00:00,96,54.0,96.5,32.0,84.0
2023-07-10 10:00:00,148,65.0,172.0,33.0,80.5
2023-07-10 11:00:00,110,63.0,112.5,34.0,76.0
2023-07-10 12:00:00,471,176.0,486.5,32.5,82.0
2023-07-10 13:00:00,64,36.0,63.5,31.5,91.0
2023-07-10 14:00:00,663,166.5,640.5,32.0,87.5
2023-07-10 15:00:00,208,76.0,258.0,33.0,81.5
2023-07-10 16:00:00,63,38.0,57.5,31.5,86.0
2023-07-10 17:00:00,43,20.0,43.0,29.0,98.0
2023-07-10 18:00:00,38,11.5,38.0,29.5,92.5
2023-07-10 19:00:00,42,18.0,42.0,30.0,92.5
2023-07-10 20:00:00,53,21.0,53.0,30.0,92.0
2023-07-10 21:00:00,44,26.0,44.5,30.0,91.0
2023-07-10 22:00:00,36,19.5,35.5,30.0,91.0
2023-07-10 23:00:00,40,24.0,38.5,29.5,94.5
2023-07-11 00:00:00,40,24.0,38.5,29.0,95.5
2023-07-11 01:00:00,35,19.0,35.0,29.0,96.5
2023-07-11 02:00:00,44,26.5,40.5,29.0,96.0
2023-07-11 03:00:00,51,30.5,43.0,30.0,92.5
2023-07-11 04:00:00,58,34.5,50.5,29.5,94.0
2023-07-11 05:00:00,53,32.0,46.5,29.5,95.0
2023-07-11 06:00:00,67,40.0,62.0,30.0,93.0
2023-07-11 07:00:00,81,48.5,77.5,29.0,98.5
2023-07-11 08:00:00,100,60.0,93.5,28.5,98.5
2023-07-11 09:00:00,71,42.5,61.5,29.0,96.0
2023-07-11 10:00:00,79,47.5,72.5,29.5,86.0
2023-07-11 11:00:00,96,57.5,89.5,30.5,82.0
2023-07-11 12:00:00,107,62.0,99.0,32.5,76.0
2023-07-11 13:00:00,107,62.0,98.5,33.5,72.0
2023-07-11 14:00:00,99,57.0,99.0,35.0,67.5
2023-07-11 15:00:00,102,47.0,103.5,35.5,65.0
2023-07-11 16:00:00,69,41.5,68.5,36.0,63.5
2023-07-11 17:00:00,62,37.0,62.5,36.0,62.5
2023-07-11 18:00:00,84,46.5,83.5,34.0,70.0
2023-07-11 19:00:00,66,35.0,66.5,32.0,77.5
2023-07-11 20:00:00,84,32.0,84.0,32.0,80.5
2023-07-11 21:00:00,52,31.5,50.5,32.0,82.5
2023-07-11 22:00:00,60,36.0,53.5,31.0,84.0
2023-07-11 23:00:00,51,30.5,45.5,31.0,84.0
2023-07-12 00:00:00,45,27.0,44.0,31.0,85.5
2023-07-12 01:00:00,48,28.5,47.5,31.0,86.0
2023-07-12 02:00:00,42,25.5,42.5,31.0,87.0
2023-07-12 03:00:00,54,32.5,46.0,31.0,89.0
2023-07-12 04:00:00,55,33.0,48.0,31.0,88.0
2023-07-12 05:00:00,61,36.5,54.5,31.0,88.5
2023-07-12 06:00:00,62,37.5,54.0,31.0,89.0
2023-07-12 07:00:00,66,39.5,54.5,32.0,86.0
2023-07-12 08:00:00,72,43.0,61.5,32.0,85.0
2023-07-12 09:00:00,88,53.0,85.5,32.0,84.0
2023-07-12 10:00:00,158,77.5,161.5,33.0,80.0
2023-07-12 11:00:00,157,77.0,141.0,34.0,77.0
2023-07-12 12:00:00,135,70.5,118.5,33.5,78.0
2023-07-12 13:00:00,99,59.5,88.5,33.5,76.0
2023-07-12 14:00:00,103,61.0,94.5,34.5,72.5
2023-07-12 15:00:00,87,52.0,78.0,36.0,63.0
2023-07-12 16:00:00,67,40.0,60.5,35.5,65.5
2023-07-12 17:00:00,48,25.0,48.5,35.5,69.5
2023-07-12 18:00:00,138,36.0,156.5,34.5,71.0
2023-07-12 19:00:00,121,32.0,131.0,32.5,78.5
2023-07-12 20:00:00,47,22.0,47.0,32.0,82.0
2023-07-12 21:00:00,40,23.0,40.0,32.0,83.0
2023-07-12 22:00:00,38,22.0,38.5,32.0,83.5
2023-07-12 23:00:00,36,21.5,36.0,32.0,84.0
2023-07-13 00:00:00,42,25.0,39.5,32.0,85.0
2023-07-13 01:00:00,42,25.5,40.0,32.0,84.5
2023-07-13 02:00:00,42,25.0,40.5,32.0,84.5
2023-07-13 03:00:00,40,22.0,40.0,31.0,86.5
2023-07-13 04:00:00,38,22.0,38.0,31.0,87.0
2023-07-13 05:00:00,42,24.5,42.5,31.0,88.0
2023-07-13 06:00:00,54,32.5,50.0,31.0,88.0
2023-07-13 07:00:00,67,40.0,58.0,32.0,85.5
2023-07-13 08:00:00,86,51.5,82.5,32.0,85.5
2023-07-13 09:00:00,115,64.5,109.5,33.0,81.5
2023-07-13 10:00:00,157,77.0,134.5,33.0,79.5
2023-07-13 11:00:00,180,84.0,146.5,34.0,76.0
2023-07-13 12:00:00,140,72.0,124.5,34.0,74.5
2023-07-13 13:00:00,92,55.0,84.5,34.5,73.5
2023-07-13 14:00:00,124,60.5,136.0,35.5,69.0
2023-07-13 15:00:00,136,62.0,154.0,36.5,63.5
2023-07-13 16:00:00,100,48.5,100.0,38.0,60.5
2023-07-13 17:00:00,95,36.5,95.0,38.5,56.0
2023-07-13 18:00:00,93,27.5,93.0,36.5,58.5
2023-07-13 19:00:00,84,26.5,84.0,33.5,68.0
2023-07-13 20:00:00,60,29.5,59.5,32.5,74.0
2023-07-13 21:00:00,48,27.5,48.0,32.0,76.5
2023-07-13 22:00:00,40,21.0,40.0,32.0,79.0
2023-07-13 23:00:00,36,19.0,36.5,32.0,81.5
2023-07-14 00:00:00,39,21.5,39.0,32.0,82.0
2023-07-14 01:00:00,40,24.0,40.0,32.0,82.0
2023-07-14 02:00:00,47,28.0,42.0,32.0,82.5
2023-07-14 03:00:00,53,32.0,43.0,32.0,83.5
2023-07-14 04:00:00,56,33.5,45.5,31.5,85.0
2023-07-14 05:00:00,62,37.5,50.0,31.5,85.0
2023-07-14 06:00:00,68,41.0,56.0,32.0,83.5
2023-07-14 07:00:00,78,46.5,66.0,32.0,81.5
2023-07-14 08:00:00,87,52.0,75.0,32.0,80.0
2023-07-14 09:00:00,111,61.0,116.0,33.0,78.5
2023-07-14 10:00:00,180,78.5,220.5,33.0,77.0
2023-07-14 11:00:00,147,61.0,170.0,34.0,75.0
2023-07-14 12:00:00,157,57.5,185.5,33.5,76.0
2023-07-14 13:00:00,89,53.5,86.0,35.5,69.0
2023-07-14 14:00:00,113,55.5,119.0,36.5,63.5
2023-07-14 15:00:00,108,54.0,112.5,35.0,67.0
2023-07-14 16:00:00,98,52.0,97.5,36.0,63.5
2023-07-14 17:00:00,102,54.0,102.5,35.0,69.0
2023-07-14 18:00:00,101,53.0,102.0,33.5,72.5
2023-07-14 19:00:00,88,52.0,88.5,33.0,77.5
2023-07-14 20:00:00,77,46.0,72.5,32.5,78.5
2023-07-14 21:00:00,69,40.0,69.0,32.0,78.5
2023-07-14 22:00:00,80,47.0,80.5,32.0,78.0
2023-07-14 23:00:00,94,54.5,94.0,32.0,79.5
2023-07-15 00:00:00,82,49.0,77.5,32.0,81.5
2023-07-15 01:00:00,82,49.0,79.0,32.0,84.0
2023-07-15 02:00:00,78,44.0,78.0,31.5,88.5
2023-07-15 03:00:00,67,40.0,66.0,31.5,86.5
2023-07-15 04:00:00,52,28.0,52.0,31.5,85.5
2023-07-15 05:00:00,49,17.5,49.0,30.0,84.0
2023-07-15 06:00:00,42,16.5,41.5,31.5,83.5
2023-07-15 07:00:00,49,20.5,49.0,32.0,82.0
2023-07-15 08:00:00,68,30.0,67.5,32.0,79.0
2023-07-15 09:00:00,68,26.5,68.0,32.0,73.0
2023-07-15 10:00:00,75,28.5,75.0,32.5,71.5
2023-07-15 11:00:00,74,27.0,74.5,34.0,66.0
2023-07-15 12:00:00,88,28.0,88.0,35.0,62.5
2023-07-15 13:00:00,103,36.0,105.0,36.0,61.0
2023-07-15 14:00:00,137,43.0,155.0,36.0,63.0
2023-07-15 15:00:00,173,50.5,209.0,36.5,61.5
2023-07-15 16:00:00,232,59.0,282.0,36.5,62.5
2023-07-15 17:00:00,176,46.5,213.5,34.0,68.5
2023-07-15 18:00:00,103,18.5,104.5,30.5,81.5
2023-07-15 19:00:00,70,16.5,70.5,31.0,81.0
2023-07-15 20:00:00,42,19.0,41.5,31.0,81.0
2023-07-15 21:00:00,46,25.5,46.0,31.0,81.5
2023-07-15 22:00:00,52,31.5,50.5,31.5,82.5
2023-07-15 23:00:00,56,33.5,55.0,31.5,83.0
2023-07-16 00:00:00,56,33.5,55.0,32.0,83.0
2023-07-16 01:00:00,52,29.0,52.0,31.5,84.5
2023-07-16 02:00:00,41,20.5,41.0,31.5,84.5
2023-07-16 03:00:00,41,19.5,41.0,32.0,84.0
2023-07-16 04:00:00,44,22.0,44.5,31.5,84.0
2023-07-16 05:00:00,42,21.0,42.0,31.0,85.0
2023-07-16 06:00:00,47,25.5,47.0,31.0,84.0
2023-07-16 07:00:00,38,18.0,37.5,31.0,85.0
2023-07-16 08:00:00,41,21.5,41.0,32.0,83.0
2023-07-16 09:00:00,38,16.0,38.0,31.0,81.5
2023-07-16 10:00:00,49,21.0,49.0,32.0,77.5
2023-07-16 11:00:00,56,33.0,56.5,32.0,75.5
2023-07-16 12:00:00,59,30.5,59.0,33.0,72.0
2023-07-16 13:00:00,54,31.5,54.5,34.0,69.5
2023-07-16 14:00:00,85,38.5,85.0,36.5,62.5
2023-07-16 15:00:00,98,44.5,98.0,37.5,60.0
2023-07-16 16:00:00,98,48.5,98.0,35.5,65.0
2023-07-16 17:00:00,56,27.5,56.5,32.5,71.5
2023-07-16 18:00:00,46,22.0,45.5,32.5,73.5
2023-07-16 19:00:00,48,21.5,48.5,32.0,76.5
2023-07-16 20:00:00,48,22.5,47.5,32.0,79.0
2023-07-16 21:00:00,62,29.0,62.0,32.0,79.5
2023-07-16 22:00:00,60,30.0,60.5,32.0,80.5
2023-07-16 23:00:00,51,28.0,51.0,32.0,81.0
2023-07-17 00:00:00,56,30.5,56.5,32.0,82.0
2023-07-17 01:00:00,56,31.0,56.5,32.0,83.5
2023-07-17 02:00:00,58,23.5,57.5,32.0,87.5
2023-07-17 03:00:00,55,21.0,55.0,31.5,85.0
2023-07-17 04:00:00,56,19.5,55.5,31.0,87.5
2023-07-17 05:00:00,56,20.5,56.0,31.0,83.5
2023-07-17 06:00:00,58,21.0,58.0,31.0,82.0
2023-07-17 07:00:00,58,23.0,57.5,31.5,80.5
2023-07-17 08:00:00,57,22.0,57.0,31.5,75.0
2023-07-17 09:00:00,66,22.5,65.5,32.0,74.5
2023-07-17 10:00:00,100,29.0,100.5,33.5,72.0
2023-07-17 11:00:00,131,41.5,146.5,34.0,70.5
2023-07-17 12:00:00,156,62.5,184.0,33.0,75.0
2023-07-17 13:00:00,112,63.0,118.5,34.5,73.5
2023-07-17 14:00:00,130,69.0,142.0,35.0,71.5
2023-07-17 15:00:00,140,70.5,159.5,36.0,68.0
2023-07-17 16:00:00,153,71.0,179.0,36.0,66.0
2023-07-17 17:00:00,141,70.5,161.5,35.0,70.5
2023-07-17 18:00:00,129,64.5,144.0,35.0,73.0
2023-07-17 19:00:00,115,63.5,123.0,34.0,74.5
2023-07-17 20:00:00,118,64.5,127.5,33.0,77.0
2023-07-17 21:00:00,107,62.0,106.0,33.0,78.5
2023-07-17 22:00:00,98,58.5,95.0,32.0,80.5
2023-07-17 23:00:00,91,54.5,85.0,32.0,81.5
2023-07-18 00:00:00,76,45.5,66.5,32.0,83.0
2023-07-18 01:00:00,79,47.5,67.5,32.0,83.0
2023-07-18 02:00:00,92,55.0,76.0,32.0,83.0
2023-07-18 03:00:00,103,61.0,85.5,32.0,83.5
2023-07-18 04:00:00,96,57.5,81.0,32.0,83.0
2023-07-18 05:00:00,69,41.5,58.0,32.0,82.5
2023-07-18 06:00:00,73,44.0,69.5,32.0,83.0
2023-07-18 07:00:00,88,53.0,81.0,32.0,83.0
2023-07-18 08:00:00,82,49.0,75.0,32.5,81.5
2023-07-18 09:00:00,96,51.0,95.5,33.0,80.5
2023-07-18 10:00:00,147,62.5,170.0,34.0,78.5
2023-07-18 11:00:00,180,73.5,220.5,35.0,75.0
2023-07-18 12:00:00,122,55.0,133.0,35.0,72.5
2023-07-18 13:00:00,63,37.0,63.0,33.5,75.0
2023-07-18 14:00:00,140,34.0,160.0,32.5,77.5
2023-07-18 15:00:00,98,50.0,98.5,32.5,80.0
2023-07-18 16:00:00,103,57.5,104.5,34.0,77.5
2023-07-18 17:00:00,123,49.0,134.0,33.0,79.0
2023-07-18 18:00:00,131,49.0,146.5,32.0,83.0
2023-07-18 19:00:00,155,48.5,182.0,32.0,83.5
2023-07-18 20:00:00,112,37.5,118.0,32.0,82.5
2023-07-18 21:00:00,73,32.0,73.0,32.0,82.5
2023-07-18 22:00:00,53,32.0,47.5,32.0,83.5
2023-07-18 23:00:00,55,33.0,46.0,32.0,84.5
2023-07-19 00:00:00,62,37.0,50.0,32.0,85.0
2023-07-19 01:00:00,60,36.0,48.5,32.0,86.0
2023-07-19 02:00:00,59,35.5,47.5,32.0,86.0
2023-07-19 03:00:00,57,34.0,46.5,32.0,86.5
2023-07-19 04:00:00,55,33.0,44.5,32.0,86.5
2023-07-19 05:00:00,53,32.0,44.0,32.0,86.0
2023-07-19 06:00:00,54,32.5,46.0,32.0,85.5
2023-07-19 07:00:00,58,35.0,49.0,32.0,83.5
2023-07-19 08:00:00,73,44.0,63.0,33.0,80.5
2023-07-19 09:00:00,94,35.0,94.5,33.0,78.0
2023-07-19 10:00:00,68,33.0,67.5,32.5,77.0
2023-07-19 11:00:00,115,35.5,122.0,34.5,73.0
2023-07-19 12:00:00,74,29.0,73.5,35.0,66.5
2023-07-19 13:00:00,58,29.5,58.0,36.5,63.0
2023-07-19 14:00:00,77,33.0,77.0,37.0,60.0
2023-07-19 15:00:00,82,35.0,82.0,39.0,55.0
2023-07-19 16:00:00,62,26.5,62.5,40.0,52.0
2023-07-19 17:00:00,53,15.5,53.0,41.5,48.5
2023-07-19 18:00:00,64,19.5,63.5,38.0,53.0
2023-07-19 19:00:00,88,28.0,87.5,35.0,59.0
2023-07-19 20:00:00,50,24.5,50.5,34.0,64.0
2023-07-19 21:00:00,58,30.5,57.5,33.0,67.0
2023-07-19 22:00:00,56,31.5,56.5,33.0,70.5
2023-07-19 23:00:00,60,33.0,60.0,33.0,72.0
2023-07-20 00:00:00,57,34.0,56.5,33.0,73.5
2023-07-20 01:00:00,61,35.5,61.0,33.0,75.5
2023-07-20 02:00:00,53,32.0,53.0,33.0,75.5
2023-07-20 03:00:00,44,24.5,44.5,32.5,74.0
2023-07-20 04:00:00,46,27.0,45.5,32.5,75.0
2023-07-20 05:00:00,44,25.5,43.5,32.0,77.0
2023-07-20 06:00:00,44,26.5,43.5,32.5,77.5
2023-07-20 07:00:00,68,37.0,68.0,33.5,75.5
2023-07-20 08:00:00,88,52.5,85.5,33.5,74.5
2023-07-20 09:00:00,76,41.0,76.0,33.0,72.5
2023-07-20 10:00:00,109,44.0,114.0,34.5,68.0
2023-07-20 11:00:00,110,50.5,115.0,35.5,64.5
2023-07-20 12:00:00,95,51.5,95.0,36.0,59.5
2023-07-20 13:00:00,72,43.0,69.0,37.5,54.5
2023-07-20 14:00:00,101,37.5,101.0,40.0,49.5
2023-07-20 15:00:00,77,25.5,77.0,41.5,44.5
2023-07-20 16:00:00,120,34.0,129.5,42.5,42.0
2023-07-20 17:00:00,117,38.5,125.5,42.5,41.5
2023-07-20 18:00:00,110,44.0,115.0,38.0,50.0
2023-07-20 19:00:00,62,24.0,62.0,36.5,57.0
2023-07-20 20:00:00,73,32.0,73.0,35.5,60.5
2023-07-20 21:00:00,90,43.5,90.5,35.0,65.0
2023-07-20 22:00:00,96,42.0,95.5,35.0,67.5
2023-07-20 23:00:00,113,43.0,120.0,34.5,69.0
2023-07-21 00:00:00,74,36.5,74.5,34.0,69.5
2023-07-21 01:00:00,74,37.0,73.5,34.0,70.0
2023-07-21 02:00:00,64,38.5,64.0,34.0,71.5
2023-07-21 03:00:00,63,37.5,63.0,34.0,72.5
2023-07-21 04:00:00,52,31.5,51.0,34.0,73.0
2023-07-21 05:00:00,53,31.5,53.0,34.0,75.0
2023-07-21 06:00:00,61,36.5,59.0,34.0,75.5
2023-07-21 07:00:00,71,41.5,71.0,34.5,73.5
2023-07-21 08:00:00,78,46.5,75.5,35.0,71.0
2023-07-21 09:00:00,94,54.0,94.0,35.0,69.5
2023-07-21 10:00:00,94,44.0,93.5,36.0,66.5
2023-07-21 11:00:00,71,38.0,71.0,36.0,63.5
2023-07-21 12:00:00,83,35.5,83.0,36.0,61.5
2023-07-21 13:00:00,72,34.0,71.5,37.5,57.5
2023-07-21 14:00:00,101,38.0,101.5,39.5,53.5
2023-07-21 15:00:00,134,39.5,151.0,40.5,49.5
2023-07-21 16:00:00,139,38.5,158.5,40.5,48.0
2023-07-21 17:00:00,172,48.5,208.5,38.0,52.5
2023-07-21 18:00:00,92,44.0,91.5,36.0,58.5
2023-07-21 19:00:00,72,38.0,72.0,35.5,61.0
2023-07-21 20:00:00,72,40.5,71.5,35.0,63.0
2023-07-21 21:00:00,101,48.5,102.0,34.5,66.5
2023-07-21 22:00:00,73,44.0,71.0,34.0,70.0
2023-07-21 23:00:00,59,35.5,53.0,34.0,72.0
2023-07-22 00:00:00,57,34.0,50.0,34.0,73.0
2023-07-22 01:00:00,55,33.0,46.0,34.0,74.0
2023-07-22 02:00:00,54,32.5,45.5,34.0,75.0
2023-07-22 03:00:00,59,35.5,51.5,34.0,75.0
2023-07-22 04:00:00,55,33.0,50.5,34.0,75.0
2023-07-22 05:00:00,54,32.5,48.0,33.0,75.5
2023-07-22 06:00:00,58,34.5,51.0,33.5,74.5
2023-07-22 07:00:00,58,34.5,54.5,34.0,73.0
2023-07-22 08:00:00,62,33.5,62.0,34.0,72.0
2023-07-22 09:00:00,87,33.5,87.0,34.5,70.5
2023-07-22 10:00:00,105,35.0,107.0,35.0,69.0
2023-07-22 11:00:00,134,43.0,151.5,35.0,68.0
2023-07-22 12:00:00,146,45.0,169.0,35.5,68.0
2023-07-22 13:00:00,70,37.5,69.5,36.0,65.0
2023-07-22 14:00:00,104,39.0,106.0,38.5,58.5
2023-07-22 15:00:00,109,37.5,114.0,38.0,57.5
2023-07-22 16:00:00,157,49.5,185.5,36.0,64.5
2023-07-22 17:00:00,70,31.0,70.5,38.0,61.5
2023-07-22 18:00:00,70,26.5,70.0,35.5,64.5
2023-07-22 19:00:00,51,21.0,51.0,34.5,66.5
2023-07-22 20:00:00,43,18.0,43.0,34.0,67.0
2023-07-22 21:00:00,49,18.5,49.0,34.0,67.0
2023-07-22 22:00:00,37,17.5,37.0,34.0,67.5
2023-07-22 23:00:00,40,20.5,40.0,34.0,68.0
2023-07-23 00:00:00,37,17.0,37.0,34.0,69.0
2023-07-23 01:00:00,36,15.5,35.5,34.0,69.5
2023-07-23 02:00:00,38,19.5,38.5,33.0,70.0
2023-07-23 03:00:00,40,19.5,39.5,33.0,71.0
2023-07-23 04:00:00,38,16.5,37.5,33.0,71.0
2023-07-23 05:00:00,35,15.5,35.0,33.0,71.0
2023-07-23 06:00:00,36,17.0,36.0,33.0,71.5
2023-07-23 07:00:00,45,27.0,44.5,33.0,72.0
2023-07-23 08:00:00,74,23.5,74.5,34.0,70.5
2023-07-23 09:00:00,72,20.0,72.0,34.0,67.5
2023-07-23 10:00:00,112,30.5,118.5,34.5,66.5
2023-07-23 11:00:00,113,28.5,120.0,35.0,64.5
2023-07-23 12:00:00,53,23.5,53.0,35.5,63.0
2023-07-23 13:00:00,50,23.0,49.5,36.5,60.0
2023-07-23 14:00:00,61,24.0,61.0,38.0,55.0
2023-07-23 15:00:00,69,23.5,69.0,38.5,53.5
2023-07-23 16:00:00,98,21.5,97.5,38.0,54.5
2023-07-23 17:00:00,58,22.5,58.5,39.5,55.0
2023-07-23 18:00:00,42,17.0,42.5,38.5,54.0
2023-07-23 19:00:00,42,20.0,42.0,35.5,59.5
2023-07-23 20:00:00,50,27.5,50.5,34.5,64.5
2023-07-23 21:00:00,68,28.0,67.5,34.0,67.5